Home   Weather   Köniz   Past weeks

Flag for Switzerland Past Weather in Köniz, Bern, Switzerland — Yesterday and Last 2 Weeks

Now
32 °F

Clear.


Feels Like: 29 °F
Forecast: 38 / 48 °F
Wind: 3 mph from North

Location: Bern / Belp

Current Time: Apr 30, 2017 at 5:14:23 am

Latest Report: Apr 30, 2017 at 4:50 am


Visibility: 10 mi

Pressure: 29.92 "Hg (27.83 "Hg at 579m altitude)

Humidity: 93%

Dew Point: 30 °F

Location of KönizLocation

Past Weather in Köniz — Graph

°F

Köniz Temperature Yesterday

Maximum temperature yesterday: 59 °F (at 4:50 pm)
Minimum temperature yesterday: 28 °F (at 1:50 am)
Average temperature yesterday: 43 °F

High & Low Weather Summary for the Past Weeks

 TemperatureHumidityPressure
High70 °F (Apr 24, 4:50 pm)100% (Apr 15, 7:20 am)30.45 "Hg (Apr 15, 7:20 am)
Low21 °F (Apr 21, 5:50 am)23% (Apr 21, 4:50 pm)29.68 "Hg (Apr 25, 10:20 pm)
Average44 °F74%30.09 "Hg
* Reported Apr 15 3:20 am — Apr 30 3:50 am, Köniz, Weather by CustomWeather, © 2017

Note: Actual official high and low records may vary slightly from our data, if they occured in-between our weather recording intervals... More about our weather records

Advertising

Köniz Weather History for the Previous 24 Hours

Scroll right to see more
 ConditionsComfort  
Time TempWeatherWind HumidityBarometerVisibility
3:50 am
Sun, Apr 30
34 °FClear.1 mph93%29.95 "Hg10 mi
3:20 am32 °FClear.1 mph100%29.95 "Hg10 mi
2:50 am32 °FClear.1 mph93%29.95 "Hg10 mi
2:20 am36 °FClear.2 mph93%29.95 "Hg10 mi
1:50 am34 °FChilly.3 mph93%29.95 "HgN/A
1:20 am34 °FPassing clouds.5 mph93%29.95 "HgN/A
12:50 am34 °FPassing clouds.5 mph100%29.95 "HgN/A
12:20 am36 °FPassing clouds.6 mph93%29.95 "HgN/A
11:50 pm
Sat, Apr 29
36 °FPassing clouds.6 mph93%29.95 "HgN/A
11:20 pm37 °FPassing clouds.6 mph87%29.95 "HgN/A
10:50 pm39 °FPassing clouds.5 mph87%29.95 "HgN/A
10:20 pm39 °FPassing clouds.3 mph87%29.95 "HgN/A
9:50 pm43 °FPassing clouds.3 mph76%29.95 "HgN/A
9:20 pm45 °FClear.3 mph71%29.95 "Hg10 mi
8:50 pm50 °FPassing clouds.6 mph54%29.95 "HgN/A
8:20 pm52 °FPassing clouds.5 mph50%29.95 "HgN/A
7:50 pm54 °FPassing clouds.5 mph47%29.95 "HgN/A
7:20 pm55 °FPassing clouds.5 mph44%29.95 "HgN/A
6:50 pm57 °FPassing clouds.7 mph41%29.95 "HgN/A
6:20 pm59 °FPassing clouds.9 mph39%29.95 "HgN/A
5:50 pm59 °FSunny.2 mph39%29.95 "Hg10 mi
5:20 pm59 °FSunny.2 mph39%29.98 "Hg10 mi
4:50 pm59 °FPassing clouds.6 mph34%29.98 "HgN/A
4:20 pm57 °FSunny.3 mph39%29.98 "Hg10 mi
3:50 pm55 °FSunny.6 mph47%29.98 "Hg10 mi
3:20 pm55 °FPassing clouds.6 mph47%29.98 "HgN/A
2:50 pm54 °FPassing clouds.7 mph44%30.01 "HgN/A
2:20 pm54 °FPassing clouds.7 mph51%30.01 "HgN/A
1:50 pm55 °FPassing clouds.5 mph47%30.01 "HgN/A
1:20 pm54 °FPassing clouds.6 mph44%30.01 "HgN/A
12:50 pm54 °FPassing clouds.5 mph51%30.01 "HgN/A
12:20 pm50 °FPassing clouds.7 mph58%30.04 "HgN/A
11:50 am50 °FPassing clouds.5 mph54%30.04 "HgN/A
11:20 am48 °FSunny.5 mph58%30.04 "Hg10 mi
10:50 am46 °FSunny.5 mph62%30.04 "Hg10 mi
10:20 am45 °FSunny.5 mph66%30.07 "Hg10 mi
9:50 am41 °FPassing clouds.6 mph76%30.07 "HgN/A
9:20 am41 °FSunny.7 mph76%30.07 "Hg10 mi
8:50 am39 °FPassing clouds.6 mph81%30.07 "HgN/A
8:20 am36 °FPassing clouds.6 mph87%30.07 "HgN/A
7:50 am34 °FSunny.6 mph93%30.07 "Hg10 mi
7:20 am30 °FSunny.5 mph100%30.07 "Hg10 mi
6:50 am28 °FSunny.5 mph100%30.07 "Hg10 mi
6:20 am28 °FSunny.6 mph100%30.07 "Hg10 mi
5:50 am28 °FPassing clouds.6 mph93%30.07 "HgN/A
5:20 am28 °FPassing clouds.6 mph100%30.07 "Hg6 mi
Weather by CustomWeather, © 2017

See weather overviewHow to use our weather pages